User: anonymous   Login
Location: Wolf Lake
(46.8518°N, 80.6381°W)
Time: 06:40:58
(UTC-04:00)
Language:

ISS - Orbit

View from above orbital plane
View from above orbital plane
View from above satellite
View from above satellite

Ground track
Ground track

The orbit data is extracted from the following two-line orbital elements,

1 25544U 98067A   24111.14160880  .00026599  00000-0  46456-3 0  9996
2 25544  51.6399 243.2230 0004811  83.2147 282.8994 15.50471139449544
Epoch (UTC): 20 April 2024 03:23:55
Eccentricity: 0.0004811
inclination: 51.6399°
perigee height: 412 km
apogee height: 418 km
right ascension of ascending node: 243.2230°
argument of perigee: 83.2147°
revolutions per day: 15.50471139
mean anomaly at epoch: 282.8994°
orbit number at epoch: 44954

The dashed part of the orbit path shows where the satellite is in the earth's shadow,  

DLR